| time (UTC) | temp C | wind direction | speed KPH | gust KPH | rain 1hr cm | rain 24hr cm | rain mn cm | humidity % | barometer mb |
| 20260509023000 | 6 | 303 | 0.0 | 0.0 | 0.00 | 0.20 | 0.10 | 84 | 1011.7 |
| 20260509021500 | 6 | 303 | 0.0 | 0.0 | 0.00 | 0.20 | 0.10 | 82 | 1011.8 |
| 20260509020004 | 7 | 303 | 0.0 | 0.0 | 0.00 | 0.20 | 0.10 | 81 | 1011.8 |
| 20260509014500 | 7 | 303 | 0.0 | 0.0 | 0.00 | 0.20 | 0.10 | 77 | 1011.8 |
| 20260509011502 | 8 | 303 | 0.0 | 0.0 | 0.00 | 0.20 | 0.10 | 72 | 1011.8 |
| 20260509010004 | 8 | 303 | 0.0 | 0.0 | 0.00 | 0.20 | 0.10 | 74 | 1011.5 |
| 20260509004500 | 10 | 303 | 0.0 | 0.0 | 0.00 | 0.20 | 0.10 | 71 | 1011.3 |
| 20260509003000 | 10 | 303 | 0.0 | 0.0 | 0.00 | 0.20 | 0.10 | 66 | 1011.2 |
| 20260509001500 | 11 | 303 | 0.0 | 0.0 | 0.00 | 0.20 | 0.10 | 64 | 1011.2 |
| 20260508234500 | 12 | 303 | 0.0 | 0.0 | 0.00 | 0.20 | 0.10 | 63 | 1011.1 |
| 20260508233000 | 12 | 303 | 0.0 | 1.6 | 0.00 | 0.20 | 0.10 | 51 | 1011.0 |
| 20260508230007 | 13 | 283 | 0.0 | 1.6 | 0.00 | 0.20 | 0.10 | 46 | 1010.9 |
| 20260508223000 | 13 | 274 | 4.8 | 11.3 | 0.00 | 0.20 | 0.10 | 42 | 1010.9 |
| 20260508221500 | 13 | 360 | 3.2 | 4.8 | 0.00 | 0.20 | 0.10 | 45 | 1010.9 |
| 20260508220008 | 14 | 251 | 3.2 | 12.9 | 0.00 | 0.20 | 0.10 | 40 | 1011.0 |
| 20260508214500 | 13 | 274 | 4.8 | 9.7 | 0.00 | 0.20 | 0.10 | 44 | 1011.0 |
| 20260508211500 | 13 | 345 | 4.8 | 12.9 | 0.00 | 0.20 | 0.10 | 48 | 1011.1 |
| 20260508210003 | 13 | 235 | 4.8 | 17.7 | 0.00 | 0.20 | 0.10 | 41 | 1011.2 |
| 20260508204500 | 13 | 184 | 4.8 | 12.9 | 0.00 | 0.20 | 0.10 | 45 | 1011.3 |
| 20260508203000 | 13 | 32 | 4.8 | 11.3 | 0.00 | 0.20 | 0.10 | 50 | 1011.4 |
| 20260508201500 | 13 | 256 | 6.4 | 14.5 | 0.00 | 0.20 | 0.10 | 45 | 1011.6 |
| 20260508200002 | 13 | 286 | 6.4 | 17.7 | 0.00 | 0.20 | 0.10 | 46 | 1011.8 |
| 20260508192959 | 12 | 272 | 6.4 | 12.9 | 0.00 | 0.20 | 0.10 | 50 | 1012.2 |
| 20260508191459 | 12 | 227 | 4.8 | 16.1 | 0.00 | 0.20 | 0.10 | 51 | 1012.4 |
| 20260508190004 | 13 | 330 | 4.8 | 11.3 | 0.00 | 0.20 | 0.10 | 49 | 1012.3 |
| 20260508184459 | 12 | 290 | 4.8 | 14.5 | 0.00 | 0.20 | 0.10 | 52 | 1012.4 |
| 20260508182959 | 12 | 325 | 6.4 | 12.9 | 0.00 | 0.20 | 0.10 | 51 | 1012.4 |
| 20260508181459 | 12 | 214 | 6.4 | 17.7 | 0.00 | 0.20 | 0.10 | 52 | 1012.5 |
| 20260508180006 | 11 | 182 | 8.0 | 14.5 | 0.00 | 0.20 | 0.10 | 59 | 1012.6 |
| 20260508174459 | 11 | 267 | 6.4 | 11.3 | 0.00 | 0.20 | 0.10 | 58 | 1012.8 |
| 20260508172959 | 11 | 213 | 8.0 | 12.9 | 0.00 | 0.20 | 0.10 | 64 | 1012.8 |
| 20260508170003 | 10 | 267 | 6.4 | 16.1 | 0.00 | 0.20 | 0.10 | 67 | 1013.1 |
| 20260508164459 | 10 | 221 | 6.4 | 12.9 | 0.00 | 0.20 | 0.10 | 66 | 1013.1 |
| 20260508162959 | 9 | 209 | 4.8 | 11.3 | 0.00 | 0.20 | 0.10 | 71 | 1013.3 |
| 20260508161459 | 9 | 294 | 8.0 | 14.5 | 0.00 | 0.20 | 0.10 | 71 | 1013.6 |
| 20260508160004 | 8 | 209 | 6.4 | 16.1 | 0.00 | 0.20 | 0.10 | 73 | 1013.6 |
| 20260508154459 | 8 | 170 | 6.4 | 14.5 | 0.00 | 0.20 | 0.10 | 72 | 1013.6 |
| 20260508153000 | 8 | 225 | 4.8 | 8.0 | 0.00 | 0.20 | 0.10 | 75 | 1013.7 |
| 20260508151459 | 7 | 185 | 4.8 | 8.0 | 0.00 | 0.20 | 0.10 | 80 | 1013.6 |
| 20260508150005 | 7 | 171 | 6.4 | 11.3 | 0.00 | 0.20 | 0.10 | 81 | 1013.6 |
| 20260508142958 | 6 | 165 | 8.0 | 14.5 | 0.00 | 0.20 | 0.10 | 85 | 1013.4 |
| 20260508141458 | 6 | 224 | 6.4 | 14.5 | 0.00 | 0.20 | 0.10 | 85 | 1013.5 |
| 20260508140002 | 6 | 192 | 3.2 | 11.3 | 0.00 | 0.20 | 0.10 | 85 | 1013.4 |
| 20260508134459 | 5 | 261 | 4.8 | 9.7 | 0.00 | 0.20 | 0.10 | 89 | 1013.7 |
| 20260508132958 | 5 | 253 | 3.2 | 6.4 | 0.00 | 0.20 | 0.10 | 89 | 1013.7 |
| 20260508131459 | 5 | 265 | 4.8 | 11.3 | 0.03 | 0.20 | 0.10 | 89 | 1013.5 |
| 20260508130002 | 5 | 207 | 3.2 | 8.0 | 0.05 | 0.20 | 0.10 | 91 | 1013.6 |
| 20260508124459 | 5 | 236 | 1.6 | 6.4 | 0.08 | 0.20 | 0.10 | 93 | 1013.5 |
| 20260508122959 | 4 | 265 | 1.6 | 6.4 | 0.08 | 0.20 | 0.10 | 92 | 1013.5 |
| 20260508121459 | 5 | 267 | 6.4 | 19.3 | 0.05 | 0.18 | 0.08 | 93 | 1013.6 |
| 20260508114459 | 5 | 261 | 1.6 | 4.8 | 0.00 | 0.13 | 0.03 | 97 | 1012.8 |
| 20260508112958 | 4 | 213 | 0.0 | 0.0 | 0.00 | 0.13 | 0.03 | 97 | 1012.4 |
| 20260508111458 | 4 | 213 | 0.0 | 3.2 | 0.00 | 0.13 | 0.03 | 97 | 1012.2 |
| 20260508110001 | 4 | 213 | 0.0 | 3.2 | 0.00 | 0.13 | 0.03 | 97 | 1012.1 |
| 20260508104459 | 3 | 213 | 0.0 | 0.0 | 0.00 | 0.13 | 0.03 | 97 | 1011.8 |
| 20260508102959 | 3 | 213 | 0.0 | 0.0 | 0.00 | 0.13 | 0.03 | 96 | 1011.9 |
| 20260508101458 | 3 | 213 | 0.0 | 0.0 | 0.00 | 0.13 | 0.03 | 96 | 1011.8 |
| 20260508100003 | 3 | 213 | 0.0 | 3.2 | 0.00 | 0.13 | 0.03 | 96 | 1011.9 |
| 20260508094458 | 3 | 213 | 0.0 | 0.0 | 0.00 | 0.13 | 0.03 | 96 | 1012.1 |
| 20260508092959 | 3 | 213 | 0.0 | 0.0 | 0.00 | 0.13 | 0.03 | 97 | 1012.2 |
| 20260508091458 | 3 | 213 | 0.0 | 0.0 | 0.00 | 0.13 | 0.03 | 96 | 1012.4 |
| 20260508090005 | 3 | 213 | 0.0 | 0.0 | 0.00 | 0.13 | 0.03 | 96 | 1012.4 |
| 20260508084458 | 2 | 213 | 0.0 | 0.0 | 0.00 | 0.13 | 0.03 | 96 | 1012.4 |
| 20260508082959 | 2 | 213 | 0.0 | 0.0 | 0.00 | 0.13 | 0.03 | 95 | 1012.4 |
| 20260508081458 | 2 | 213 | 0.0 | 0.0 | 0.00 | 0.13 | 0.03 | 95 | 1012.3 |
| 20260508080001 | 2 | 213 | 0.0 | 0.0 | 0.00 | 0.13 | 0.03 | 95 | 1012.3 |
| 20260508074458 | 2 | 213 | 0.0 | 0.0 | 0.00 | 0.13 | 0.03 | 94 | 1012.3 |
| 20260508072959 | 3 | 213 | 0.0 | 0.0 | 0.00 | 0.13 | 0.03 | 94 | 1012.3 |
| 20260508064457 | 3 | 213 | 0.0 | 1.6 | 0.00 | 0.13 | 0.03 | 93 | 1012.5 |
| 20260508061457 | 4 | 213 | 0.0 | 1.6 | 0.00 | 0.13 | 0.03 | 93 | 1012.5 |
| 20260508060001 | 5 | 213 | 0.0 | 1.6 | 0.00 | 0.13 | 0.03 | 93 | 1012.6 |
| 20260508054457 | 5 | 224 | 1.6 | 4.8 | 0.00 | 0.13 | 0.03 | 93 | 1012.6 |
| 20260508052958 | 5 | 221 | 1.6 | 6.4 | 0.03 | 0.13 | 0.03 | 93 | 1012.8 |
| 20260508051457 | 5 | 225 | 1.6 | 3.2 | 0.03 | 0.13 | 0.03 | 94 | 1012.8 |
| 20260508050004 | 5 | 225 | 0.0 | 3.2 | 0.03 | 0.13 | 0.03 | 93 | 1012.7 |
| 20260508044457 | 5 | 236 | 0.0 | 3.2 | 0.03 | 0.13 | 0.03 | 93 | 1012.8 |
| 20260508042957 | 5 | 236 | 0.0 | 0.0 | 0.03 | 0.10 | 0.00 | 93 | 1012.7 |
| 20260508041458 | 5 | 236 | 1.6 | 3.2 | 0.08 | 0.10 | 0.00 | 92 | 1012.6 |
| 20260508040006 | 6 | 236 | 1.6 | 4.8 | 0.08 | 0.10 | 0.00 | 92 | 1012.6 |
| 20260508034501 | 6 | 263 | 1.6 | 6.4 | 0.10 | 0.10 | 0.10 | 91 | 1012.7 |
| 20260508033002 | 6 | 275 | 1.6 | 4.8 | 0.08 | 0.08 | 0.08 | 91 | 1012.6 |
| 20260508031501 | 6 | 238 | 1.6 | 6.4 | 0.03 | 0.03 | 0.03 | 89 | 1012.8 |
| 20260508030007 | 6 | 313 | 3.2 | 11.3 | 0.03 | 0.03 | 0.03 | 87 | 1012.7 |
| 20260508024500 | 6 | 260 | 1.6 | 4.8 | 0.00 | 0.00 | 0.00 | 86 | 1012.8 |